Location: Christian Reformed Church
(43.0975°N, 93.8113°W)
Time: 16:18:32
(UTC+00:00)

Cosmos 2333 Rocket - Pass Details

Date: 13 December 2025
Orbit: 837 x 865 km, 70.8° (Epoch: 16 January)

Event Time Altitude Azimuth Distance (km) Brightness Sun altitude
Exits shadow 12:07:28 23° 303° (WNW) 1,743 3.3 -16.0°
Maximum altitude 12:10:13 36° 255° (WSW) 1,324 2.8 -15.5°
Drops below altitude 10° 12:15:23 10° 190° (S) 2,481 4.7 -14.6°
Sets 12:17:59 0° 182° (S) 3,408 5.6 -14.1°
